Theta_e
315 313 311 309 311 310 306 302 299 297 294 294 295 295 295 294 291 282 282 283 284 284 282 282 284 283 283 284 285 284 283 286 284 283 283 283 283 287 289 290 291 292 293 293 293 293 294 294 294 293 293 293 293 294 294 294 294 295 295 296 296 297 296 296 296 296 296 296 297 298 298 298 297 298
315 312 310 308 308 305 301 300 299 296 294 293 293 294 294 293 293 287 284 283 283 282 282 281 282 282 283 284 284 284 284 287 284 282 282 283 283 286 287 288 289 290 291 291 291 292 292 293 293 293 293 292 293 294 294 294 294 294 295 296 296 296 296 296 295 296 295 296 296 297 297 298 298 298
312 309 307 305 303 297 297 297 295 294 293 293 292 292 292 289 290 288 284 283 281 283 284 282 282 284 283 284 283 283 283 285 283 282 282 283 285 284 284 286 287 289 290 290 289 290 291 291 291 292 292 292 292 292 293 293 293 293 294 294 294 294 295 294 294 294 294 295 296 296 296 297 297 297
306 306 305 302 301 297 295 293 291 291 291 291 290 289 289 288 286 286 284 283 282 281 281 282 283 284 284 283 282 281 283 285 284 281 281 283 283 281 280 284 285 287 288 288 288 288 289 289 290 290 291 291 292 291 292 292 292 292 293 293 293 293 293 293 293 294 293 294 294 295 295 296 296 296
306 305 304 301 299 295 294 291 290 290 290 289 289 288 288 286 283 284 283 283 280 282 282 283 283 283 283 282 282 281 281 281 282 282 281 281 281 281 280 280 283 285 287 286 287 288 288 287 288 289 289 289 290 290 290 290 290 290 291 291 292 292 292 292 293 293 292 293 294 294 294 295 295 295
303 303 303 303 298 292 293 291 290 290 289 288 288 286 286 286 283 282 282 281 282 281 281 281 283 282 283 282 283 281 281 281 281 280 280 281 281 281 280 279 279 284 285 286 286 286 286 287 287 287 287 288 288 288 289 288 289 289 290 290 290 291 291 292 292 291 291 292 293 293 294 294 294 294
302 300 300 299 294 290 291 291 291 290 289 288 288 287 286 285 284 283 281 282 282 282 281 282 281 282 282 282 282 282 282 282 281 280 280 280 281 281 280 279 279 283 285 285 285 285 285 286 286 286 286 286 287 287 287 287 288 288 289 289 289 289 289 290 290 290 290 291 291 292 292 293 293 293
301 300 298 296 292 289 290 290 289 288 288 287 287 287 286 285 285 283 281 282 281 281 281 281 282 283 281 281 281 282 281 281 281 280 280 280 280 279 279 279 278 281 284 284 283 284 284 284 285 285 285 286 286 286 286 286 287 287 288 288 288 288 288 289 289 289 289 290 291 291 292 292 292 292
297 297 297 294 290 290 292 289 288 287 287 287 287 286 286 285 285 283 282 281 282 282 282 281 282 282 282 281 281 281 280 280 280 280 279 279 279 279 279 279 279 282 283 282 282 282 283 283 284 284 284 284 285 285 285 286 286 286 287 288 287 288 287 288 288 288 288 288 289 289 291 291 291 291
298 297 297 295 292 291 292 290 288 288 287 287 286 285 285 284 283 281 280 281 281 283 282 282 281 281 280 280 280 281 281 280 279 279 279 279 278 277 278 278 279 279 278 277 278 279 280 281 282 282 283 283 284 284 284 285 285 285 286 287 287 287 287 287 287 287 287 287 288 288 289 289 290 289
295 295 294 292 291 291 291 291 289 288 287 287 286 285 285 283 282 281 280 280 281 281 281 281 281 281 281 281 280 280 281 281 280 279 278 277 277 277 276 276 277 278 278 279 280 279 279 280 279 280 281 281 282 283 283 283 284 285 286 287 286 286 286 287 287 286 287 287 287 287 287 288 289 288
293 292 292 291 291 291 291 291 289 288 287 286 285 284 284 283 282 281 281 280 280 281 281 281 281 281 280 280 280 280 280 279 279 279 277 277 275 274 275 276 275 275 275 274 274 277 277 277 277 279 279 279 280 280 280 281 282 284 286 286 286 286 286 286 286 286 286 286 286 287 287 287 287 287
291 290 291 291 290 290 289 289 288 288 288 286 284 283 283 282 282 281 281 281 281 281 280 280 281 280 280 280 279 278 278 278 279 278 277 275 274 275 275 275 276 276 274 274 274 273 273 272 272 272 273 274 277 276 278 278 281 284 286 286 286 286 286 286 286 285 285 286 286 286 287 287 286 285
289 290 289 289 287 287 287 287 287 288 288 287 286 283 283 282 282 282 281 281 280 280 279 280 280 279 279 280 280 279 279 279 277 276 275 274 275 275 274 275 274 276 275 272 273 273 272 269 269 270 271 273 274 274 274 275 281 284 285 285 285 285 285 285 285 285 285 285 285 286 286 286 286 284
289 288 288 287 286 286 286 286 287 288 288 288 287 287 286 286 284 282 281 280 280 280 279 279 279 279 279 280 281 280 279 278 278 277 276 275 274 273 271 272 273 275 274 271 268 271 269 269 269 269 269 270 271 273 273 280 283 284 285 285 284 284 284 284 284 284 285 285 285 285 285 286 285 284
288 288 287 286 286 286 286 286 286 286 287 288 288 287 287 287 288 287 284 282 280 280 279 279 280 280 280 281 281 280 279 278 277 277 276 275 274 273 272 272 272 274 276 272 269 271 268 267 268 268 269 270 270 272 277 281 283 284 284 284 284 284 284 284 284 284 284 284 285 285 285 285 285 283
288 287 286 285 286 286 285 285 285 285 285 287 287 287 287 287 288 288 289 288 284 283 281 281 281 281 281 281 281 281 280 280 277 276 275 275 275 275 273 274 273 275 275 272 269 268 269 266 268 267 270 269 269 270 275 280 282 283 283 283 283 283 283 283 283 283 283 284 284 284 284 285 284 282
288 287 287 286 285 286 286 285 285 284 284 284 284 284 283 283 285 287 288 287 286 285 283 282 282 283 283 282 282 281 282 279 277 276 276 276 275 275 274 276 275 275 274 272 269 268 267 266 267 269 269 268 270 269 274 279 281 282 282 282 282 283 283 283 282 282 283 283 283 283 284 284 283 281
288 288 288 287 287 285 283 283 284 283 282 282 282 280 280 281 281 281 282 281 281 281 282 282 281 282 283 280 279 280 281 280 280 279 278 277 277 276 275 273 273 271 272 272 272 269 270 268 269 269 269 269 269 269 272 277 280 281 281 281 281 282 282 282 281 281 282 283 283 283 283 283 282 280
287 287 287 286 285 283 282 284 286 285 282 281 280 279 278 277 278 281 283 286 285 282 282 281 280 280 281 282 280 280 280 280 279 279 278 277 276 274 272 272 270 268 270 272 272 269 269 268 269 269 268 268 268 269 266 275 278 280 280 280 280 280 280 280 280 281 281 282 282 282 283 283 281 279
285 285 285 285 285 284 284 285 287 287 285 280 280 279 278 277 276 280 279 285 287 286 285 285 285 285 285 285 285 285 284 281 279 277 276 274 275 273 271 272 271 271 268 271 272 269 269 269 268 270 270 268 269 266 266 264 274 278 279 279 279 279 279 279 279 280 280 281 281 282 282 282 280 278
284 284 284 284 284 284 284 286 288 288 285 280 280 279 278 277 278 279 278 280 283 286 286 285 285 285 285 285 286 286 285 284 281 277 276 276 275 273 273 272 271 270 269 270 273 269 269 267 268 269 269 266 265 264 263 265 270 275 275 276 277 277 277 278 278 279 279 280 281 281 281 282 280 276
283 282 284 284 284 284 284 286 288 288 285 281 280 280 278 278 278 280 281 281 281 282 281 281 282 282 284 283 283 284 285 284 281 279 278 276 275 274 273 273 271 270 271 271 273 270 269 268 269 268 269 268 268 263 261 265 265 267 268 268 268 274 275 276 276 277 278 279 280 280 281 281 280 276
283 283 282 284 285 285 285 287 288 288 287 283 282 281 280 279 279 279 280 281 281 280 280 280 280 279 280 281 282 282 283 283 280 279 278 277 276 275 274 273 272 272 271 270 274 271 267 269 267 270 268 267 268 266 265 267 267 268 267 268 265 271 272 272 272 275 276 277 278 279 280 280 280 276
283 282 282 282 284 286 286 287 288 288 288 286 282 281 280 280 280 280 278 279 281 278 279 279 279 279 279 279 279 280 280 281 280 280 280 278 277 276 275 273 272 272 272 270 276 272 268 266 267 267 266 266 265 265 268 268 269 267 268 266 265 266 266 266 268 266 271 274 276 278 278 279 279 277
283 283 282 282 283 285 286 287 287 288 289 288 283 281 284 284 285 275 276 275 276 275 277 277 277 277 277 277 277 277 278 278 277 278 279 278 277 278 278 276 274 272 272 273 278 272 268 266 268 267 267 265 266 267 266 268 268 266 265 264 265 265 265 264 265 266 266 268 268 273 276 278 278 278
283 283 282 282 283 284 286 286 287 287 288 288 285 285 285 285 285 280 273 275 275 274 275 277 276 276 276 276 276 276 276 276 276 275 276 277 277 276 276 277 276 276 274 272 275 272 271 268 268 268 268 267 266 266 268 267 267 266 266 266 265 266 265 264 265 265 267 267 267 273 273 275 276 277
283 282 282 282 284 284 285 286 286 286 287 285 287 287 286 285 283 274 274 273 273 274 274 276 276 276 277 277 276 276 276 276 276 276 276 275 275 275 275 275 275 275 274 273 273 273 272 270 268 269 269 267 266 266 265 268 269 267 267 268 267 266 265 265 265 266 266 266 266 267 267 267 268 269
283 283 284 284 284 284 285 286 286 286 286 287 287 287 286 283 276 274 272 273 273 274 275 275 276 276 277 277 277 276 276 275 275 274 274 274 274 274 275 274 274 274 274 273 273 273 272 272 270 269 268 268 267 267 267 267 267 266 267 266 266 265 266 266 264 264 265 266 266 266 266 265 266 269
284 285 285 284 284 284 284 284 284 283 283 286 286 286 285 281 278 275 274 274 275 275 276 276 276 276 276 276 276 275 274 274 273 273 272 272 271 272 271 271 272 272 272 273 273 272 272 272 271 270 269 268 269 268 268 267 267 268 268 267 266 268 266 265 265 265 265 265 265 265 266 266 267 267
278 280 280 279 282 282 283 283 283 283 283 281 280 280 280 279 278 276 276 276 276 277 277 277 277 277 276 275 273 273 273 272 273 273 272 272 271 271 271 271 270 271 272 271 272 272 272 271 271 271 268 268 269 269 268 268 267 268 268 268 265 265 264 263 265 265 264 264 263 264 265 266 266 268
273 274 280 279 275 274 274 274 273 273 273 275 276 275 276 278 278 279 279 280 278 278 278 277 276 274 273 273 273 272 271 272 272 272 272 272 271 272 270 269 269 270 271 271 270 271 271 271 271 271 270 269 267 268 268 268 267 267 267 268 266 266 266 266 266 266 264 264 264 263 264 264 264 265
272 272 272 271 271 270 272 271 271 271 272 272 272 273 274 276 278 279 279 278 278 277 276 276 275 274 273 272 272 272 271 272 272 272 271 272 271 271 270 269 270 270 269 270 270 269 269 269 270 270 270 270 270 269 267 265 267 268 267 267 266 265 265 265 264 265 264 264 262 261 262 263 263 265
269 268 268 268 269 269 269 270 271 271 271 271 271 272 277 275 274 277 278 278 278 277 276 276 275 275 273 272 272 271 271 271 272 272 272 270 271 269 270 269 269 271 270 270 270 269 268 267 267 268 268 268 269 269 268 267 267 268 267 266 265 264 266 264 264 263 264 264 263 262 261 262 263 263
270 269 269 269 268 269 268 269 269 270 270 271 271 271 271 271 272 274 275 276 276 276 276 275 275 274 274 273 273 272 272 271 271 270 271 271 270 270 270 269 270 270 270 270 270 270 267 266 265 265 266 266 265 267 271 269 267 267 268 267 265 265 265 264 264 264 263 262 263 262 260 260 261 263
268 268 268 267 267 267 268 269 270 269 269 269 270 269 269 270 271 272 273 274 273 273 273 274 274 274 273 273 273 272 272 271 270 270 269 269 269 269 270 269 269 270 270 270 270 270 267 267 266 265 264 264 264 264 267 273 271 268 267 267 265 264 265 264 263 263 263 261 261 263 262 259 258 262
269 267 267 267 267 268 269 268 268 269 269 270 270 269 270 270 271 272 272 272 271 271 272 272 272 273 272 272 271 271 271 270 269 269 268 268 268 268 268 268 269 269 269 270 271 269 268 267 267 266 266 266 265 264 266 267 272 274 269 268 265 262 264 260 261 261 263 263 260 262 262 261 259 261
271 268 268 268 268 267 268 268 268 269 268 269 269 269 269 270 271 270 268 269 270 269 270 271 271 270 270 269 268 268 267 268 268 267 268 267 266 266 267 267 267 268 268 269 270 269 268 268 267 267 267 265 265 265 266 265 265 269 275 270 268 265 262 262 261 262 262 261 263 262 261 259 262 261
273 270 270 270 271 271 271 271 271 272 271 269 269 269 269 268 268 268 268 268 268 268 268 268 268 269 269 268 268 268 267 266 266 266 266 266 267 266 266 267 267 268 269 269 270 268 268 267 267 267 267 267 266 267 267 266 266 265 267 274 270 266 263 264 264 262 262 260 260 259 259 261 264 269
276 276 276 276 276 275 274 274 273 272 271 271 270 269 269 269 269 269 268 269 269 270 270 270 270 270 269 269 269 269 269 268 268 268 268 268 268 268 268 268 268 268 268 269 268 268 267 267 268 268 268 269 267 264 264 263 262 262 262 268 274 270 266 264 264 261 258 261 260 260 259 259 261 260
268 267 268 270 271 271 272 272 272 272 272 273 272 273 273 273 272 272 272 273 272 272 271 271 271 270 270 270 269 269 268 268 268 268 268 268 268 268 268 269 268 269 268 267 268 268 268 269 269 271 269 266 263 265 264 264 265 265 264 266 271 274 272 269 266 264 263 261 261 261 261 260 259 256
272 273 273 273 273 273 273 273 274 273 274 274 274 274 274 274 274 274 274 273 273 272 272 271 271 270 270 270 270 269 268 268 268 268 268 268 267 267 268 268 267 267 267 266 267 268 266 264 267 268 266 265 265 265 264 265 265 265 263 263 263 269 273 273 271 270 266 262 261 258 257 259 258 257
270 271 271 271 272 272 272 272 272 273 272 273 273 273 273 273 273 273 273 272 272 272 272 271 271 271 270 270 270 269 268 268 268 268 268 268 267 267 266 267 267 267 267 267 267 264 262 263 264 265 265 265 265 266 264 265 266 265 263 263 264 264 267 272 273 273 272 271 270 267 264 261 259 258
264 265 265 265 265 265 266 266 266 266 266 267 267 267 268 269 269 270 271 271 271 271 271 271 270 270 270 270 269 269 268 268 268 268 268 267 267 267 266 266 266 266 267 267 266 265 263 263 264 265 263 264 264 264 264 265 265 265 264 263 262 264 266 265 266 271 272 273 273 272 272 271 270 271
260 259 259 259 259 260 260 260 261 261 261 261 262 262 264 266 268 268 269 270 270 270 270 270 270 270 269 269 269 268 268 269 268 267 267 267 267 266 266 266 266 265 265 266 266 265 264 262 263 264 264 264 265 264 265 265 265 264 262 262 262 263 263 263 265 266 265 265 269 273 273 272 272 272
Wind_Speed
12 10 11 10 10 11 10 8 7 7 6 6 7 8 10 10 9 7 7 8 7 5 3 5 5 4 4 4 3 4 3 4 5 3 2 2 1 5 6 7 8 9 9 10 11 11 11 12 12 13 14 14 14 15 15 16 17 17 18 20 20 21 22 23 23 24 25 26 27 28 29 31 31 32
12 11 10 9 9 8 8 10 10 8 8 8 8 8 6 7 10 8 9 8 6 4 3 2 5 4 5 4 3 3 3 6 5 3 3 2 2 6 7 7 8 8 9 10 11 11 11 11 12 13 13 14 14 14 15 15 16 16 18 19 20 20 21 22 22 23 24 25 27 28 28 29 31 31
10 12 12 8 6 2 3 3 5 5 7 8 8 9 8 8 9 9 7 5 2 3 8 4 2 6 4 5 4 3 2 4 4 3 2 2 5 6 5 7 7 8 8 10 10 10 10 11 12 12 13 14 14 14 14 15 15 15 17 18 19 19 20 21 21 22 23 24 25 27 28 30 30 31
4 6 9 11 10 8 6 6 6 7 7 7 7 7 7 8 8 7 8 8 5 1 4 4 3 6 7 5 6 3 2 3 5 3 2 2 4 3 3 6 6 7 7 9 9 9 9 10 12 12 13 13 13 13 14 14 14 15 16 17 18 19 19 20 21 22 23 24 24 26 27 28 30 31
10 11 11 8 7 6 8 7 6 6 7 6 7 7 7 7 6 8 8 8 4 1 1 3 4 5 7 3 4 5 4 3 3 3 2 1 2 2 2 3 5 6 7 8 9 8 8 9 11 12 12 13 12 13 13 13 13 14 15 16 17 18 19 20 20 21 22 23 24 25 26 27 29 30
9 10 11 11 10 9 8 7 8 7 7 7 7 7 7 7 8 6 6 5 7 6 1 3 3 4 3 4 3 6 5 3 2 2 2 1 1 1 1 2 3 6 5 8 8 7 8 9 10 11 11 12 12 12 11 12 12 13 14 16 17 18 18 19 20 21 21 22 23 25 26 27 28 29
9 8 9 7 5 5 7 7 7 6 7 7 9 9 7 8 7 6 4 6 4 9 4 4 6 5 2 3 4 3 3 3 3 2 1 1 1 1 0 0 1 4 4 7 7 7 7 8 9 10 11 11 11 11 10 10 11 12 14 15 16 17 18 19 20 20 21 22 23 25 26 26 28 29
8 11 9 7 8 7 5 5 6 6 6 7 7 7 5 6 8 6 3 4 6 4 8 5 6 4 5 2 3 3 3 3 2 1 1 2 2 2 1 1 1 4 4 6 8 7 7 8 9 10 10 10 10 10 9 9 10 11 13 14 16 17 17 18 19 20 21 21 23 24 25 26 27 28
3 5 7 5 8 10 11 8 7 8 7 6 6 7 7 6 4 3 4 5 5 8 8 6 2 3 2 2 3 5 5 2 1 1 2 2 2 2 2 2 2 4 4 5 8 8 7 8 10 10 10 10 10 9 8 8 9 10 13 14 15 16 17 18 19 19 20 21 22 23 25 26 27 28
9 10 10 8 8 8 11 11 9 9 10 8 8 7 7 6 6 5 4 5 7 8 8 9 6 4 5 3 3 4 4 5 4 3 4 3 2 3 3 3 2 2 2 1 3 5 6 8 10 11 11 10 10 9 7 7 8 10 13 14 15 16 17 18 18 19 20 20 21 23 24 25 26 27
5 5 4 5 7 9 10 10 11 11 10 9 10 9 8 7 7 7 6 7 8 9 8 4 5 7 4 5 5 3 3 3 4 5 4 5 4 4 3 4 1 2 3 3 4 5 6 7 6 9 11 10 9 8 7 8 10 11 13 14 15 16 17 17 18 18 19 20 21 22 23 24 25 26
6 5 6 6 8 10 7 7 7 9 10 8 8 6 7 8 8 8 7 7 7 8 8 6 7 5 5 4 3 3 3 2 4 6 5 7 4 4 3 4 2 1 1 2 2 4 4 4 6 9 10 10 10 9 8 9 10 12 12 13 15 16 16 17 17 18 19 19 20 22 22 23 24 25
4 5 6 7 7 7 9 10 10 11 10 10 10 7 8 8 8 7 6 6 6 5 6 5 3 5 5 6 6 6 6 10 10 4 6 6 3 2 4 3 3 4 2 2 2 3 2 2 2 3 5 5 7 7 8 7 9 11 11 13 14 15 16 16 17 18 18 19 20 21 22 22 24 24
4 4 5 5 8 11 10 10 11 12 13 13 11 12 11 10 9 8 7 7 7 7 8 8 9 7 8 9 10 10 9 5 3 5 5 6 3 1 4 6 4 3 2 1 5 4 2 2 3 2 4 5 5 5 5 4 6 8 11 12 14 15 16 16 17 17 18 19 19 20 21 22 23 23
5 4 3 3 4 4 3 5 9 12 14 13 11 11 14 13 15 11 9 10 9 10 10 8 8 10 10 10 9 11 7 5 7 6 5 4 3 4 2 6 2 2 2 0 2 5 1 2 2 3 4 4 4 5 5 9 9 9 10 12 13 15 15 16 16 17 18 18 19 20 20 21 22 21
4 5 5 4 5 6 8 7 7 9 12 13 13 12 14 14 14 13 16 14 9 8 9 9 10 9 9 9 8 7 5 7 6 5 5 6 6 5 5 3 3 1 2 1 2 7 0 1 1 3 4 3 3 6 8 9 9 9 9 11 13 14 15 15 16 17 17 18 18 19 20 20 20 20
6 7 6 6 6 6 10 10 11 9 9 12 13 12 15 15 15 13 13 10 14 14 10 10 10 11 10 7 9 11 9 7 8 6 6 7 6 5 4 6 2 2 2 1 1 5 2 1 1 3 5 3 3 5 7 9 8 8 9 10 12 13 14 15 15 16 17 17 18 18 19 19 19 19
7 8 8 8 9 10 11 8 7 6 6 5 6 6 6 6 9 10 11 8 3 4 9 10 11 12 8 11 8 7 9 11 10 10 9 6 6 7 7 2 2 1 2 2 0 4 3 0 0 4 4 2 4 3 6 8 7 7 7 10 11 13 13 14 14 15 16 17 17 17 18 18 18 17
6 7 8 8 6 3 2 2 4 6 6 5 5 4 4 5 5 5 5 3 3 4 4 4 3 1 3 2 5 8 8 8 5 7 6 8 6 3 1 1 1 2 2 3 2 6 3 2 1 5 4 2 4 4 5 7 6 6 6 9 11 12 13 13 14 14 15 16 16 17 17 17 16 16
3 3 4 4 3 4 4 6 10 7 5 5 6 5 5 4 3 5 2 1 1 1 0 1 0 1 2 4 4 7 7 5 6 7 6 6 5 4 0 6 1 4 2 4 5 4 4 2 2 4 2 2 4 4 3 5 5 5 6 8 10 11 12 13 13 14 15 15 15 15 17 16 15 15
3 2 3 3 3 3 5 6 10 9 8 6 7 6 6 5 4 7 2 3 6 5 4 4 5 6 6 7 8 10 12 9 9 7 6 5 6 5 5 5 3 5 2 3 6 2 6 1 2 4 2 2 4 5 4 3 4 4 5 8 10 10 11 12 13 14 14 14 14 15 15 15 13 14
3 3 6 5 5 5 5 8 12 13 10 8 8 8 7 7 8 8 4 3 3 6 7 7 7 7 7 9 10 12 14 16 12 10 10 8 8 7 6 7 3 2 1 5 5 3 5 1 1 3 4 3 3 4 4 4 3 4 4 6 8 9 10 11 12 13 13 14 14 14 15 15 13 7
4 4 5 9 8 6 5 10 12 14 12 8 8 9 8 9 10 10 7 7 6 5 4 4 5 4 7 6 6 8 16 17 12 7 5 8 9 8 6 6 1 4 5 6 9 6 3 2 2 2 4 4 3 1 3 2 3 3 1 1 3 6 9 10 11 12 13 13 13 13 14 15 12 5
2 3 3 4 6 6 7 10 13 14 14 10 6 5 8 8 12 3 5 5 5 5 5 4 4 4 4 5 5 6 8 9 9 7 6 7 7 7 6 6 6 5 3 2 10 7 2 2 3 1 2 1 4 1 3 4 3 3 2 0 2 3 6 7 7 10 11 12 13 13 13 14 13 5
4 3 3 3 5 9 10 11 13 13 14 11 7 7 8 7 1 5 4 5 6 6 4 4 4 3 3 4 4 5 6 7 7 7 7 7 7 8 7 7 7 8 5 4 12 6 4 1 3 1 2 1 3 4 3 2 4 3 4 3 1 2 1 2 3 4 7 10 12 12 12 13 13 10
4 4 3 4 5 8 10 11 11 13 12 13 7 6 6 4 3 2 2 3 3 3 3 3 3 3 4 4 5 6 6 6 4 5 6 6 7 7 7 8 8 6 7 6 16 8 4 2 5 3 1 0 5 2 5 5 4 3 0 2 2 3 1 1 2 3 3 4 6 8 9 12 12 12
4 2 3 3 7 9 9 10 11 11 12 9 6 8 7 5 5 6 3 4 4 3 3 4 5 5 6 6 7 7 7 6 5 6 6 7 6 6 5 6 6 7 2 6 8 7 7 4 3 6 5 1 3 4 4 5 5 1 2 3 2 2 1 1 1 3 4 4 5 10 10 10 12 12
3 3 3 4 7 8 9 9 10 10 8 5 8 9 9 7 6 4 5 3 4 4 4 5 6 7 6 6 6 8 7 7 7 7 6 7 6 6 6 5 4 3 4 5 6 7 7 7 4 4 4 5 5 5 6 4 4 3 3 3 2 3 1 1 1 3 3 2 4 4 4 6 6 6
3 3 5 6 7 7 8 8 8 6 8 9 8 8 9 7 5 5 5 5 5 5 6 7 6 7 7 7 7 3 3 2 2 3 4 2 3 4 4 4 4 5 5 5 6 7 7 7 6 3 4 4 6 6 3 7 2 4 0 3 5 2 0 2 2 2 3 3 3 3 3 4 5 5
5 5 6 6 6 6 5 4 3 3 3 5 7 7 8 5 5 5 5 5 6 7 6 6 7 7 4 4 4 3 4 5 6 4 3 3 5 5 5 5 5 4 5 6 7 7 7 7 7 6 6 6 7 8 7 6 10 7 5 4 4 5 4 1 1 2 2 3 2 3 4 3 4 3
3 3 4 3 4 4 5 4 3 3 3 2 2 2 3 5 5 6 6 7 7 6 6 6 6 5 3 2 3 3 4 4 3 4 4 5 6 5 5 6 6 6 6 6 7 8 8 8 8 8 9 8 7 9 7 5 9 10 7 4 3 5 2 1 1 3 2 2 2 3 3 4 3 2
3 3 5 5 3 3 2 2 1 1 0 1 1 2 2 4 4 5 5 5 5 5 4 4 2 1 2 2 3 2 3 4 3 3 4 5 5 4 4 4 8 7 6 6 7 7 8 9 9 8 10 9 10 8 4 7 10 10 9 5 5 6 4 5 5 3 3 1 2 2 2 3 4 5
4 5 5 4 4 2 2 1 1 0 0 1 0 1 2 1 2 4 4 6 6 5 3 5 5 5 3 4 3 4 4 5 4 4 5 5 5 4 5 9 8 6 8 8 7 7 7 8 8 9 9 8 9 7 6 8 10 8 9 8 5 7 4 4 4 4 2 1 2 1 3 4 4 3
5 2 3 2 2 1 1 1 0 0 0 1 2 2 2 2 2 3 4 5 5 4 5 5 5 5 4 5 4 5 5 5 4 5 6 5 5 6 8 8 9 7 7 7 6 6 5 5 5 5 5 5 5 7 8 10 11 7 7 6 6 7 6 3 4 3 3 2 2 2 3 3 4 3
3 2 3 1 1 1 1 1 1 1 2 2 2 3 2 2 3 4 4 5 4 4 4 4 4 4 5 6 5 6 6 6 5 4 4 5 6 8 8 9 9 8 8 8 7 5 5 4 5 4 2 3 5 9 13 14 9 10 5 6 5 7 6 4 3 3 3 2 2 2 3 3 4 4
2 2 3 1 1 1 1 2 2 2 3 3 4 3 2 4 4 5 6 5 4 5 4 5 5 5 6 6 5 5 5 4 5 5 5 6 7 7 7 9 8 8 7 8 7 4 6 6 6 7 9 6 5 7 8 21 22 10 9 9 5 6 5 4 3 2 4 4 3 4 3 3 2 4
3 2 3 2 2 2 3 3 3 3 3 4 4 5 4 4 5 5 5 3 4 5 6 5 5 5 5 5 5 5 5 5 6 5 6 6 6 7 7 9 9 9 9 9 6 5 6 7 7 6 6 8 8 12 10 3 18 21 9 11 6 4 5 3 4 4 5 4 4 5 4 3 2 3
4 4 3 2 2 2 2 2 2 2 3 3 3 4 4 5 4 5 3 3 5 4 5 5 5 5 5 6 5 6 5 6 5 6 7 6 6 7 8 8 9 8 8 8 7 7 6 8 8 9 9 11 10 9 10 1 2 7 16 11 8 5 4 4 4 6 5 3 6 4 2 2 5 3
4 5 3 3 3 3 2 3 3 4 4 3 3 3 4 4 4 4 3 5 4 5 5 5 5 6 6 5 6 6 6 5 6 6 6 7 7 8 8 8 8 8 7 9 7 6 6 8 9 9 10 9 12 10 4 3 5 2 4 10 8 4 5 6 6 4 5 5 3 1 2 2 4 6
3 3 3 3 3 2 2 2 2 2 2 3 4 4 3 4 5 5 5 5 5 5 5 6 6 5 6 6 6 6 6 7 8 7 7 7 7 8 8 8 8 9 8 9 8 6 7 9 9 9 9 11 3 1 3 1 1 1 2 4 11 10 6 6 6 5 4 3 3 3 2 1 2 2
2 2 1 1 1 1 0 1 1 1 2 3 3 3 3 4 4 5 5 5 4 5 5 6 6 6 6 6 6 6 7 7 7 7 7 7 8 8 9 9 8 8 8 10 9 8 9 8 8 9 6 2 4 2 2 4 8 4 4 5 6 12 12 11 7 6 4 4 5 4 4 3 2 2
4 4 3 4 3 3 3 2 2 2 2 2 2 3 3 3 4 6 6 5 6 6 6 5 5 5 6 6 6 6 7 8 7 7 7 7 8 8 9 8 8 8 8 10 10 9 5 1 5 7 5 5 4 6 10 10 9 5 3 2 3 5 10 13 12 10 7 8 6 4 3 1 1 1
4 4 4 4 4 4 4 4 4 4 4 4 4 5 4 4 4 4 4 5 4 5 5 5 5 5 6 5 5 6 7 8 8 8 7 7 7 8 8 8 8 8 8 9 8 5 1 2 4 5 6 6 8 8 11 9 5 4 3 1 1 1 2 9 13 13 12 13 9 5 5 5 5 2
4 4 3 3 3 3 3 3 3 3 3 3 3 4 4 4 5 5 5 5 5 5 5 5 5 5 6 6 5 6 6 7 7 8 8 7 7 7 7 7 7 7 7 7 7 6 3 3 4 6 7 8 6 7 9 6 5 4 4 2 1 2 3 1 2 1 4 7 10 9 8 6 3 3
3 4 3 2 2 2 2 2 2 2 2 2 3 3 4 4 5 5 5 6 6 6 6 6 6 5 5 5 6 7 7 7 7 7 7 6 6 7 7 7 7 7 8 7 7 6 4 4 4 3 5 5 6 7 7 5 4 4 3 3 3 2 2 2 4 4 2 1 2 5 9 7 7 8
Wind_Direction
212 213 212 207 213 214 206 194 192 192 189 196 191 188 191 194 190 187 208 219 196 214 188 156 217 182 179 160 155 136 152 145 134 135 124 111 39 34 27 16 17 4 3 2 0 350 349 347 345 340 338 337 338 338 341 343 344 345 345 346 344 345 346 347 347 346 345 345 343 342 341 340 341 341
208 210 209 213 220 207 183 198 192 182 185 181 185 194 212 195 203 188 191 225 194 168 186 173 163 184 172 149 147 152 147 142 133 130 124 101 69 44 33 23 17 4 0 5 358 348 347 344 340 337 335 334 334 336 338 341 343 343 344 344 343 344 345 347 347 346 346 345 343 341 342 340 341 342
208 208 208 206 227 161 189 167 172 185 178 191 187 198 200 208 212 186 183 205 242 143 182 225 193 149 159 153 142 127 120 137 129 121 114 107 72 55 29 26 15 1 359 2 354 347 346 342 336 332 331 331 330 333 336 339 341 342 343 343 342 344 345 346 346 346 346 345 343 342 341 341 342 343
208 206 210 204 197 185 183 187 185 187 195 184 185 196 199 209 206 178 172 193 194 324 186 149 137 144 139 153 138 133 114 107 112 112 116 97 77 55 24 18 9 355 354 357 348 343 344 339 333 330 329 328 328 331 333 338 340 341 343 342 341 343 344 345 346 347 346 344 343 343 342 341 342 344
212 210 206 198 202 173 184 184 173 177 181 172 181 180 183 199 198 171 171 172 138 42 44 111 144 141 134 137 156 145 150 145 117 104 97 86 78 69 38 345 349 347 350 352 344 340 338 335 331 328 327 324 325 327 331 338 339 340 342 341 341 342 343 344 347 347 346 345 344 344 343 342 342 344
206 204 203 204 194 175 177 167 179 181 175 179 177 187 187 193 192 200 140 155 148 165 137 93 112 145 159 119 184 162 160 167 154 106 113 146 159 128 61 19 326 330 340 344 342 335 333 330 327 324 324 320 321 323 329 335 339 340 340 340 341 342 343 344 346 346 346 345 345 344 344 343 343 345
208 207 216 212 154 156 164 181 187 178 188 187 189 188 185 185 193 202 172 131 134 151 166 156 156 164 158 145 179 165 144 137 145 135 134 169 218 211 183 26 270 309 318 337 339 333 329 325 324 321 319 316 316 319 324 335 339 340 340 340 341 342 342 343 345 346 346 346 345 345 345 344 344 345
195 204 204 197 166 150 160 185 182 189 196 192 191 179 184 187 187 184 157 127 128 148 142 188 171 167 143 119 121 124 116 123 112 148 209 196 215 236 234 233 238 285 289 324 331 327 325 323 323 320 315 313 311 314 322 333 339 340 338 339 340 340 342 343 345 346 346 346 345 345 346 345 345 346
227 247 231 180 153 166 185 180 176 179 186 183 173 180 174 179 175 160 134 129 123 141 152 138 167 144 105 123 148 157 147 136 166 195 209 227 247 254 241 238 243 261 273 317 325 326 321 318 317 318 314 311 308 312 319 331 339 338 337 338 339 340 341 342 344 345 346 346 347 346 347 346 346 346
189 194 204 195 191 185 188 186 177 169 178 173 183 182 179 168 160 153 126 123 127 138 151 155 142 180 159 155 171 189 172 160 194 225 211 235 234 234 278 260 222 189 194 229 311 318 317 312 311 312 314 312 306 309 316 330 341 338 335 338 339 340 340 342 343 345 346 347 348 348 348 347 347 347
199 202 195 186 184 186 198 181 176 174 180 185 191 184 173 167 164 159 156 144 142 148 143 135 163 156 176 161 169 165 151 167 200 219 237 262 220 210 222 278 266 203 225 248 277 295 291 293 302 304 311 311 305 310 323 335 342 338 334 338 339 338 339 341 342 345 347 348 348 348 348 347 347 348
188 173 168 172 189 199 195 182 182 171 181 182 185 179 165 169 167 165 160 152 149 145 152 162 165 174 151 145 75 91 125 190 254 212 200 234 235 239 226 214 248 264 198 269 298 309 307 303 303 306 311 311 313 326 334 331 331 329 332 337 336 336 338 340 343 345 347 348 348 348 347 348 348 349
167 169 182 186 190 185 189 191 188 191 180 172 180 181 170 172 175 166 163 153 143 149 152 140 127 146 160 181 159 171 189 207 217 168 180 234 242 267 296 270 215 221 251 283 304 288 229 293 293 303 306 301 317 318 322 316 323 325 331 336 335 336 338 341 343 345 347 348 348 347 347 348 348 350
191 187 179 181 183 192 192 187 188 191 194 195 187 173 173 177 173 167 156 165 170 164 172 178 167 173 196 189 195 197 213 183 106 146 169 208 220 204 281 285 233 186 156 337 304 277 229 197 277 285 292 289 310 297 304 285 306 321 333 334 335 337 339 342 343 345 346 347 347 348 347 348 348 350
187 168 157 146 150 155 175 203 200 197 196 191 190 187 190 181 171 163 175 181 178 181 188 179 179 188 194 204 196 207 188 175 188 184 180 186 157 199 231 267 331 159 113 78 265 286 228 144 259 289 280 283 292 294 285 306 323 327 331 333 335 336 339 341 344 344 344 346 347 348 347 347 349 350
159 156 146 138 147 173 190 191 198 205 203 199 198 186 196 208 216 199 175 175 184 193 180 181 195 185 200 202 185 197 170 191 173 179 174 188 189 199 210 221 244 184 136 173 258 279 257 116 216 285 272 272 277 282 297 314 321 330 330 332 333 336 339 342 343 343 343 345 347 347 347 348 351 352
169 158 154 155 171 183 183 192 198 190 199 205 201 193 195 208 213 221 233 215 190 178 178 180 193 199 196 189 204 193 182 150 171 162 189 199 199 198 206 219 219 171 161 109 303 283 278 109 216 278 277 259 279 296 307 317 326 331 332 330 334 335 338 341 342 342 342 344 347 347 348 349 352 354
168 167 167 175 197 204 202 195 178 182 189 193 203 203 199 205 220 232 235 230 236 188 189 185 195 212 183 199 195 164 147 157 179 179 202 181 192 197 218 193 205 155 128 166 202 297 285 160 311 276 260 230 290 271 280 310 320 327 328 332 334 337 339 340 341 342 342 344 346 347 348 350 352 356
174 182 189 198 207 193 191 183 178 183 185 181 200 207 211 210 215 225 225 228 215 206 228 248 286 328 192 105 123 154 172 179 167 173 173 176 178 151 64 7 226 278 178 147 151 248 253 196 201 241 234 278 284 263 290 301 317 318 325 334 338 340 341 341 342 343 343 343 345 345 348 351 356 359
163 165 179 187 184 170 190 195 192 183 163 172 186 196 208 219 235 236 236 86 142 202 250 15 71 113 151 140 137 154 155 125 112 97 86 97 110 120 182 251 326 250 274 175 189 246 268 188 197 258 207 223 270 276 261 267 313 311 320 334 344 345 344 343 344 344 344 343 344 346 349 353 358 360
132 154 174 181 187 183 200 193 190 180 155 179 187 192 201 210 220 235 236 175 188 166 148 141 124 129 149 154 156 157 154 145 137 123 119 165 154 153 220 250 212 257 164 223 212 244 286 219 221 278 233 197 250 252 239 264 287 311 314 343 349 346 344 344 344 344 344 343 343 347 349 353 1 359
128 161 177 182 189 194 197 182 187 183 169 186 190 188 193 205 219 232 193 189 174 158 152 153 152 155 165 170 174 169 163 159 156 157 193 176 154 193 198 234 204 275 220 220 165 195 240 325 269 299 287 320 243 239 247 244 271 323 332 345 350 342 346 348 344 344 343 343 344 348 352 352 3 359
157 168 185 193 198 199 171 183 190 189 181 194 189 193 186 208 221 225 179 191 173 165 155 166 159 174 178 175 168 177 173 170 175 191 173 147 170 189 197 208 72 320 265 191 172 204 262 122 276 115 339 317 271 204 252 257 262 259 221 4 334 326 350 348 343 343 341 344 346 349 354 355 4 360
187 182 192 207 206 197 181 193 197 198 189 194 192 178 199 205 232 196 168 185 182 190 191 186 182 181 174 172 170 180 182 182 182 188 172 173 174 183 184 190 188 202 220 175 181 210 289 183 260 26 179 191 283 304 326 294 227 225 178 23 339 316 347 350 341 335 338 342 346 350 356 358 4 1
186 201 196 175 195 204 198 197 201 202 198 194 190 194 208 214 142 123 162 176 164 187 186 186 182 180 183 191 186 191 196 199 189 191 192 185 186 184 189 189 200 231 215 175 187 202 231 156 233 119 308 248 277 333 291 284 278 231 205 155 219 301 19 335 333 317 328 336 341 349 355 2 5 12
199 198 184 188 193 205 206 199 203 205 206 203 200 208 208 202 190 133 151 150 164 172 177 175 185 185 197 208 208 211 213 210 191 187 194 194 205 209 203 196 200 218 230 183 184 193 160 267 192 180 193 159 291 237 299 286 260 283 99 188 180 247 166 289 322 308 321 318 317 338 356 3 8 12
199 166 169 177 181 199 207 205 205 210 210 208 207 209 205 210 154 112 106 124 140 154 178 183 208 207 206 212 213 213 217 209 192 191 198 202 200 215 217 220 215 228 174 162 188 176 189 226 175 191 220 171 248 303 253 271 297 340 310 270 256 248 191 147 301 296 301 321 309 338 349 352 5 9
168 174 188 186 183 194 204 208 209 212 211 201 217 213 206 185 133 113 116 127 153 168 187 208 217 222 219 219 223 222 216 208 206 207 201 199 196 198 213 215 222 215 169 173 178 185 196 220 215 202 193 204 232 246 278 288 269 268 268 288 264 266 222 136 296 289 298 308 290 338 345 341 328 348
167 173 167 165 176 187 197 203 206 208 213 213 208 205 198 171 130 145 154 162 153 183 212 218 223 231 224 218 230 227 199 184 175 216 240 208 212 213 220 215 204 208 202 188 179 184 197 214 232 199 204 214 224 249 224 259 294 285 245 345 316 335 243 217 198 255 296 305 298 314 314 298 321 328
136 144 152 166 170 179 180 181 176 181 195 212 209 200 190 168 170 171 169 173 185 215 219 220 229 234 228 227 204 162 156 177 210 202 215 199 234 207 209 201 232 218 219 198 194 191 193 200 212 205 221 229 225 246 241 257 272 266 249 235 265 299 274 198 204 222 247 295 305 313 299 290 281 323
115 135 136 144 142 141 161 160 159 153 158 189 221 207 179 178 182 183 188 192 206 221 227 231 237 239 216 131 139 190 183 212 210 184 209 216 231 208 224 213 237 226 219 202 209 202 199 202 202 197 211 233 231 233 241 242 262 269 256 220 196 234 267 331 244 244 245 262 282 284 295 309 311 340
110 96 89 81 70 78 68 78 69 68 82 145 181 219 197 196 196 196 196 211 222 234 235 260 268 248 127 217 205 187 201 224 220 186 204 216 230 209 191 224 236 228 236 213 215 213 208 210 203 209 213 217 225 237 212 229 243 253 264 237 218 256 265 271 269 263 208 149 334 313 299 291 309 310
62 70 69 78 66 71 94 76 72 31 16 339 354 290 276 230 206 200 194 221 230 227 230 245 236 240 199 225 184 208 219 223 213 180 201 219 212 222 193 226 235 214 228 231 211 213 210 219 215 214 217 221 224 221 207 247 246 235 246 250 225 244 244 235 227 233 148 175 253 313 304 299 256 283
93 81 104 93 121 107 105 118 128 195 160 249 283 270 246 219 216 217 223 233 238 220 219 231 233 238 222 236 212 223 228 237 209 196 197 218 204 208 223 231 240 239 240 245 224 211 198 192 211 239 239 244 250 225 216 230 252 240 224 238 223 243 239 213 229 213 182 188 205 274 320 299 298 280
116 120 130 138 95 119 132 166 194 190 191 218 215 240 228 222 215 228 227 236 233 232 229 231 234 234 231 241 227 227 233 232 226 196 211 206 219 225 228 240 246 238 236 246 243 210 160 170 152 177 245 251 276 265 218 217 236 245 244 233 212 223 241 210 211 197 172 180 140 172 263 291 285 274
97 123 137 137 164 153 175 221 209 203 211 219 215 220 219 242 226 216 236 235 211 224 227 232 231 235 238 242 243 239 239 231 230 213 215 214 222 237 238 242 247 251 244 241 245 199 167 189 166 176 192 222 235 277 267 206 204 224 222 249 209 211 229 215 206 189 175 174 177 163 211 250 268 278
134 133 139 162 178 177 206 217 210 228 220 225 231 216 221 236 240 226 238 222 212 222 225 225 234 233 239 236 242 240 235 228 239 224 223 222 225 229 240 249 247 247 250 250 231 202 182 188 195 184 209 221 226 238 249 52 212 212 199 234 229 179 197 175 172 198 209 176 179 184 191 199 233 277
153 154 157 182 195 209 208 220 213 238 243 235 231 238 238 240 249 253 240 202 232 232 236 234 241 236 237 230 233 244 238 231 232 237 235 224 225 237 236 245 250 247 249 253 229 206 192 197 200 206 204 213 230 239 257 240 54 234 218 212 232 205 156 156 176 198 209 189 190 196 140 211 235 245
156 160 173 181 203 188 209 232 209 234 250 250 247 239 251 260 261 265 252 238 239 237 241 242 243 238 235 237 232 233 239 239 238 240 239 236 232 239 246 247 256 258 252 255 240 207 198 210 212 208 210 212 223 232 216 214 234 246 302 226 196 164 189 186 206 196 185 190 215 138 245 258 272 266
139 147 172 182 207 192 207 200 216 231 239 251 251 257 254 263 260 258 256 254 247 243 237 240 244 243 241 232 235 240 243 237 238 245 245 244 242 241 247 247 251 256 256 259 254 226 216 221 218 212 214 226 240 103 146 149 226 263 298 284 206 188 186 175 199 175 207 208 135 144 221 9 204 313
69 71 29 86 66 10 96 325 290 307 288 287 282 282 270 262 267 260 251 250 247 249 248 245 240 238 241 235 231 227 238 245 239 242 246 248 247 245 246 251 256 254 255 258 257 249 239 235 221 225 217 140 124 99 20 273 254 210 194 241 240 212 195 185 185 178 185 153 155 153 177 189 210 9
56 42 36 32 35 13 27 17 360 356 329 316 303 291 279 271 260 278 274 271 267 261 257 255 249 245 246 240 237 233 239 243 243 245 244 241 249 253 249 243 250 253 249 254 255 255 273 113 162 180 152 152 157 193 231 234 245 231 204 254 305 261 223 205 196 190 160 142 126 130 108 55 64 335
58 55 47 29 31 33 29 27 21 20 10 6 359 350 339 321 312 301 289 281 274 267 261 259 254 248 250 248 240 235 239 247 249 249 245 241 241 247 248 245 244 248 248 255 262 265 199 164 152 156 173 185 203 208 230 234 231 201 178 171 221 355 244 220 204 202 185 178 182 171 163 160 149 206
66 65 50 43 50 38 37 38 32 25 22 11 354 347 333 325 314 304 306 300 297 288 283 273 264 257 255 254 250 242 239 246 249 252 250 250 244 244 249 252 248 250 251 257 262 244 173 181 191 177 173 207 199 208 233 225 222 191 175 153 73 103 160 90 22 202 191 204 206 200 196 179 177 183
76 86 72 46 63 49 49 45 43 29 26 3 7 349 334 325 310 309 303 300 293 291 287 282 278 271 266 259 255 255 252 254 255 250 255 254 253 249 249 249 250 250 249 246 250 251 191 186 206 209 211 213 204 216 226 213 204 146 154 150 170 160 139 123 176 189 185 318 294 227 213 212 224 233